2020-051E (45943 NORAD) Tracking and Keplerian Element Data

This shows tracking and keplerian element data for the satellite.

Feedback or suggestion? Click here.




ElementValue
Catalog45943
Name2020-051E
Epoch Orbit274
Epoch Day225.15290016
Epoch Year2020
RAAN299.0833
Inclination97.5752
Eccentricity0.003874
Argument of Perigee207.7939
Mean Anonmoly236.5617
Mean Motion15.2665927
Decay Rate1.53E-05
L11 45943U 20051E 20225.15290016 .00001530 00000-0 60133-4 0 9994
L22 45943 97.5752 299.0833 0038740 207.7939 236.5617 15.26659270 2741

Live tracking and technical data element details for 2020-051E (NORAD 45943). 2020-051E can be tracked NOW for your location showing map with azimuth and elevation plus other details from your city location.

Track the satellite on the map from your city or location and see movement details for azimuth, elevation, latitude, longitude, range, height, and movement on the map or in text.







IsCatalogInMostPopularTable: catalog: 45943, numindb: 1
Update: records affected: 1



GetName: 45943 2020-051E

Hit Count: updated at: Fri, 14 Aug 2020 04:23:28 GMT